[[{"header":{"parameterUnit":"m.s-1","parameterCategory":1,"la1":30.2991,"la2":30.254,"lo1":-89.0895,"lo2":-89.0444,"dy":0.0017,"dx":0.0017,"nx":28,"ny":28,"refTime":"2025-04-10T03:00:00:Z","depth":0,"parameterNumber":2,"parameterNumberName":"U-component_of_WINDS"},"data":[0,0,0,0,0,0,0,0,0,0,0,0,0,0,0,0,0,0,0,0,0,0,0,0,0,0,0,0,0,0,0,0,0,0,0,0,0,0,0,0,0,0,0,0,0,0,0,0,0,0,0,0,0,0,0,0,0,0,3.5733,3.5733,0,3.5763,3.5764,3.5764,3.5781,3.5781,3.5781,3.5781,3.5812,3.5813,3.5814,0,0,0,0,0,0,0,0,0,0,0,0,0,3.5689,3.569,3.5733,3.5733,3.5733,3.5763,3.5764,3.5764,3.5781,3.5781,3.5781,3.5781,3.5812,3.5813,3.5814,0,0,0,0,0,0,0,0,0,0,0,0,0,3.5713,3.569,3.5733,3.5745,3.5747,3.5763,3.5764,3.5764,3.5781,3.5781,3.5781,3.5781,3.5811,3.5813,3.5814,3.582,0,0,3.5817,3.5818,0,0,0,0,0,0,0,0,3.5711,3.5714,3.5743,3.5744,3.5746,3.5768,3.576,3.5783,3.5781,3.5768,3.5781,3.5781,3.5797,3.58,3.5805,3.5821,3.5823,3.5818,3.5818,3.5819,3.5819,0,0,0,0,0,0,0,3.571,3.5713,3.5745,3.5743,3.5745,3.575,3.5753,3.5764,3.5782,3.5769,3.577,3.5774,3.5798,3.5804,3.5806,3.5823,3.5817,3.5819,3.5819,3.582,3.5848,3.5848,0,0,0,0,0,0,3.5706,3.5712,3.5744,3.5746,3.5729,3.575,3.5754,3.5761,3.5782,3.5785,3.5773,3.5774,3.5802,3.5805,3.5807,3.5817,3.5819,3.582,3.5821,3.5848,3.5848,3.5848,0,0,0,0,0,0,3.5705,3.5709,3.5743,3.5729,3.5734,3.5751,3.5759,3.5762,3.5768,3.5785,3.5788,3.5776,3.5802,3.5806,3.5817,3.5818,3.582,3.5822,3.5848,3.5848,3.5848,3.5835,0,0,0,0,0,0,3.5704,3.5708,3.571,3.5729,3.5734,3.5751,3.5759,3.5762,3.577,3.5771,3.5789,3.5792,3.5803,3.5815,3.5818,3.582,3.5822,3.5848,3.5848,3.5848,3.5836,3.5835,3.5834,0,0,0,0,0,3.5702,3.5705,3.571,3.5714,3.5737,3.5751,3.5754,3.5767,3.577,3.5772,3.5784,3.5791,3.5818,3.5816,3.582,3.5822,3.5848,3.5848,3.5848,3.5836,3.5835,3.5834,0,0,0,0,0,0,3.5685,3.5708,3.5714,3.5723,3.5735,3.5754,3.5757,3.5765,3.5777,3.5777,3.5792,3.5796,3.5807,3.5816,3.5813,3.583,3.5834,3.5835,3.5823,3.5823,3.5822,3.5819,3.5823,0,0,0,0,0,3.5683,3.5692,3.5711,3.5718,3.5724,3.5739,3.5746,3.5755,3.5768,3.5773,3.5786,3.5798,3.581,3.5817,3.5828,3.5838,3.5842,3.5841,3.584,3.584,3.584,3.5847,3.5846,3.5848,3.5848,3.5848,0,0,3.5677,3.5691,3.5696,3.5715,3.5725,3.5735,3.5744,3.5753,3.5761,3.5775,3.5786,3.5796,3.5812,3.5822,3.5828,3.583,3.5841,3.584,3.5839,3.584,3.5847,3.5847,3.5846,3.5848,3.5848,3.5848,0,0,3.5673,3.5683,3.569,3.5701,3.5717,3.5728,3.573,3.5749,3.5756,3.5768,3.5779,3.5789,3.5808,3.5819,3.5827,3.5829,3.5836,3.5832,3.5828,3.5834,3.5834,3.5834,3.5835,3.5835,3.5832,3.5832,3.5832,0,3.5664,3.5678,3.5693,3.5702,3.5711,3.5725,3.5732,3.5742,3.5761,3.5767,3.577,3.5795,3.5806,3.582,3.5821,3.5827,3.583,3.5829,3.5833,3.5833,3.5833,3.5835,3.5835,3.5832,3.5832,3.5832,3.5832,0,3.5667,3.5677,3.5681,3.57,3.5709,3.5717,3.5733,3.5741,3.575,3.5761,3.5774,3.5788,3.5804,3.5808,3.5816,3.5824,3.5825,3.583,3.5834,3.5832,3.5834,3.5834,3.5831,3.5831,3.5831,3.5831,0,0,3.565,3.5679,3.568,3.5689,3.5709,3.5717,3.5727,3.5743,3.5749,3.5763,3.5772,3.5789,3.5794,3.5803,3.5813,3.5819,3.5821,3.5824,3.5825,3.5823,3.5831,3.5827,3.5827,3.5826,3.5827,3.5827,3.583,0,3.5648,3.5666,3.568,3.5693,3.5703,3.5718,3.5727,3.5741,3.5752,3.5763,3.5775,3.5787,3.5793,3.5799,3.5806,3.5819,3.5823,3.5819,3.5835,3.5836,3.583,3.5828,3.5822,3.5824,3.583,3.5831,3.5831,0,3.5647,3.5661,3.5675,3.5695,3.57,3.5708,3.5724,3.5734,3.5751,3.5758,3.577,3.5781,3.5793,3.5797,3.5814,3.5811,3.5819,3.5827,3.5827,3.5829,3.5832,3.5829,3.5825,3.5825,3.5832,3.5832,3.5832,0,3.5634,3.5656,3.5667,3.5675,3.5699,3.5704,3.5715,3.5731,3.574,3.5755,3.5761,3.5776,3.5785,3.5797,3.5812,3.5814,3.5828,3.5833,3.5836,3.5835,3.5837,3.5836,3.5835,3.5843,3.5843,3.5843,3.5843,0,3.5629,3.5637,3.5662,3.5668,3.5678,3.5696,3.5705,3.5717,3.5732,3.5742,3.5756,3.5766,3.5785,3.5797,3.581,3.5823,3.5826,3.5833,3.5836,3.5832,3.5831,3.5836,3.5836,3.5843,3.5843,3.5843,3.5843,0,3.5615,3.5632,3.5645,3.5668,3.5674,3.568,3.57,3.5708,3.5721,3.5734,3.5738,3.5758,3.5773,3.579,3.581,3.5819,3.5831,3.5835,3.5825,3.5827,3.5828,3.5828,3.5829,3.5831,3.5838,3.5838,3.5838,0,3.5611,3.5617,3.5641,3.5649,3.566,3.5672,3.5682,3.57,3.5709,3.573,3.5735,3.5752,3.5766,3.5789,3.5806,3.5822,3.5827,3.5827,3.583,3.5825,3.5827,3.5827,3.5828,3.5826,3.5825,3.5825,3.5825,0,3.5601,3.561,3.5623,3.564,3.5651,3.5665,3.568,3.5685,3.5707,3.5717,3.5733,3.5744,3.5765,3.5782,3.5801,3.5812,3.5822,3.5825,3.5826,3.5821,3.5815,3.5818,3.5822,3.5824,3.5824,3.5824,3.5824,3.5824,3.5592,3.5599,3.5617,3.5632,3.5645,3.5659,3.5668,3.5683,3.5696,3.5716,3.5726,3.5742,3.576,3.5787,3.5798,3.5812,3.5815,3.5817,3.5817,3.5817,3.5816,3.5813,3.5815,3.5815,3.5815,3.5815,3.5815,0,3.5583,3.5596,3.561,3.563,3.5642,3.5652,3.5669,3.5679,3.5693,3.5709,3.5723,3.5742,3.5759,3.5778,3.5796,3.5803,3.5808,3.5807,3.5806,3.5809,3.5812,3.5809,3.5803,3.5803,3.5803,3.5803,3.5803,3.5803,3.558,3.5593,3.5604,3.5624,3.5637,3.5653,3.5662,3.5676,3.5689,3.571,3.5724,3.5736,3.5754,3.5774,3.579,3.5796,3.5802,3.5799,3.5806,3.5808,3.5809,3.581,3.5807,3.58,3.58,3.5802,3.5802,3.5802]},{"header":{"parameterUnit":"m.s-1","parameterCategory":1,"la1":30.2991,"la2":30.254,"lo1":-89.0895,"lo2":-89.0444,"dy":0.0017,"dx":0.0017,"nx":28,"ny":28,"refTime":"2025-04-10T03:00:00:Z","depth":0,"parameterNumber":3,"parameterNumberName":"V-component_of_WINDS"},"data":[0,0,0,0,0,0,0,0,0,0,0,0,0,0,0,0,0,0,0,0,0,0,0,0,0,0,0,0,0,0,0,0,0,0,0,0,0,0,0,0,0,0,0,0,0,0,0,0,0,0,0,0,0,0,0,0,0,0,-3.1336,-3.1335,0,-3.1218,-3.1217,-3.1216,-3.1239,-3.1242,-3.1244,-3.1246,-3.1118,-3.1112,-3.1107,0,0,0,0,0,0,0,0,0,0,0,0,0,-3.1576,-3.1572,-3.1337,-3.1335,-3.1334,-3.1219,-3.1217,-3.1215,-3.1239,-3.1242,-3.1244,-3.1247,-3.1119,-3.1113,-3.1106,0,0,0,0,0,0,0,0,0,0,0,0,0,-3.1466,-3.157,-3.1337,-3.1332,-3.133,-3.1219,-3.1217,-3.1215,-3.1238,-3.1242,-3.1245,-3.1248,-3.1121,-3.1114,-3.1105,-3.099,0,0,-3.1081,-3.1077,0,0,0,0,0,0,0,0,-3.1473,-3.1457,-3.1334,-3.1332,-3.133,-3.1247,-3.1255,-3.1139,-3.1238,-3.1273,-3.1246,-3.125,-3.1158,-3.1147,-3.1117,-3.0984,-3.0978,-3.108,-3.1075,-3.1071,-3.1069,0,0,0,0,0,0,0,-3.148,-3.1463,-3.129,-3.1332,-3.133,-3.1333,-3.1321,-3.1233,-3.1198,-3.127,-3.1272,-3.1258,-3.1157,-3.1125,-3.1114,-3.0976,-3.108,-3.1073,-3.1068,-3.1065,-3.0742,-3.0738,0,0,0,0,0,0,-3.1491,-3.1469,-3.1293,-3.1286,-3.1411,-3.1326,-3.1313,-3.127,-3.1199,-3.1192,-3.1255,-3.1259,-3.1137,-3.1124,-3.111,-3.0968,-3.1071,-3.1064,-3.1059,-3.0745,-3.0741,-3.0737,0,0,0,0,0,0,-3.1496,-3.1475,-3.1298,-3.1378,-3.1356,-3.1319,-3.1271,-3.1266,-3.1234,-3.1188,-3.1181,-3.1229,-3.1139,-3.1121,-3.102,-3.0964,-3.106,-3.1053,-3.075,-3.0744,-3.0739,-3.0685,0,0,0,0,0,0,-3.1502,-3.1476,-3.1433,-3.1377,-3.1351,-3.1211,-3.1267,-3.1262,-3.1221,-3.1225,-3.1162,-3.1154,-3.114,-3.1032,-3.1012,-3.0955,-3.1046,-3.0754,-3.0747,-3.0741,-3.0692,-3.0679,-3.0668,0,0,0,0,0,-3.1511,-3.1421,-3.1431,-3.1409,-3.1297,-3.1208,-3.1194,-3.1182,-3.1216,-3.1172,-3.1142,-3.1156,-3.0975,-3.1021,-3.0999,-3.0939,-3.0758,-3.0749,-3.0741,-3.0697,-3.0681,-3.0668,0,0,0,0,0,0,-3.1469,-3.1414,-3.1424,-3.1314,-3.1266,-3.1213,-3.1155,-3.1165,-3.1104,-3.1111,-3.1097,-3.1082,-3.0979,-3.0949,-3.1002,-3.0823,-3.0871,-3.0858,-3.0845,-3.083,-3.0818,-3.0825,-3.104,0,0,0,0,0,-3.1448,-3.1382,-3.1337,-3.1244,-3.122,-3.1192,-3.1153,-3.1149,-3.1097,-3.1076,-3.1039,-3.0987,-3.0919,-3.0873,-3.0807,-3.069,-3.0674,-3.0637,-3.0625,-3.0615,-3.0602,-3.0536,-3.0518,-3.071,-3.071,-3.071,0,0,-3.1401,-3.1363,-3.1322,-3.1235,-3.1197,-3.1127,-3.1175,-3.1099,-3.1046,-3.1064,-3.0966,-3.0937,-3.0878,-3.0768,-3.0717,-3.074,-3.0547,-3.0605,-3.0597,-3.0589,-3.0526,-3.0508,-3.0492,-3.0704,-3.0705,-3.0706,0,0,-3.128,-3.1247,-3.1165,-3.1127,-3.1071,-3.1053,-3.1034,-3.098,-3.0962,-3.0865,-3.0876,-3.0813,-3.0695,-3.0652,-3.0615,-3.0482,-3.0491,-3.0461,-3.0395,-3.0331,-3.0316,-3.0302,-3.0252,-3.0234,-3.0449,-3.0449,-3.0449,0,-3.1228,-3.1127,-3.1121,-3.1045,-3.1005,-3.1022,-3.0938,-3.0901,-3.0824,-3.0796,-3.0824,-3.0677,-3.0638,-3.0517,-3.0485,-3.0455,-3.0431,-3.0466,-3.0319,-3.0305,-3.0293,-3.0244,-3.0226,-3.0445,-3.0446,-3.0446,-3.0447,0,-3.1065,-3.0994,-3.0935,-3.0864,-3.0818,-3.0738,-3.0718,-3.0673,-3.0673,-3.0652,-3.0552,-3.0507,-3.0433,-3.0405,-3.0403,-3.0283,-3.0299,-3.0323,-3.037,-3.0271,-3.0225,-3.0207,-3.044,-3.0442,-3.0443,-3.0444,0,0,-3.091,-3.084,-3.0817,-3.0785,-3.0726,-3.0669,-3.0591,-3.052,-3.048,-3.0428,-3.0359,-3.0261,-3.0284,-3.0242,-3.0236,-3.018,-3.0075,-3.0211,-3.021,-3.0185,-2.9937,-2.9917,-2.9895,-3.0083,-3.008,-3.0077,-2.9941,0,-3.0781,-3.0644,-3.0637,-3.0511,-3.0444,-3.0461,-3.0392,-3.0347,-3.0326,-3.0265,-3.0241,-3.0171,-3.0207,-3.0182,-3.0128,-3.0099,-3.0024,-3.0109,-3.0015,-3.0012,-3.0026,-2.9872,-2.985,-2.9723,-2.9924,-2.9921,-2.9918,0,-3.0612,-3.0557,-3.0425,-3.0376,-3.0347,-3.0285,-3.022,-3.0163,-3.0112,-3.0101,-3.0056,-3.0059,-2.9976,-3.003,-2.9914,-2.9972,-2.9934,-2.9914,-2.9909,-2.9896,-2.9956,-2.9852,-2.9683,-2.9663,-2.9891,-2.9893,-2.9895,0,-3.0508,-3.0402,-3.0309,-3.0281,-3.0222,-3.0178,-3.0151,-3.0104,-3.0062,-3.0005,-2.9978,-2.9911,-2.9874,-2.9822,-2.9806,-2.9847,-2.969,-2.9743,-2.9675,-2.9675,-2.9637,-2.9639,-2.9457,-2.962,-2.962,-2.962,-2.9621,0,-3.0362,-3.028,-3.0261,-3.0203,-3.0111,-3.0106,-3.0014,-2.999,-2.9948,-2.9884,-2.9895,-2.9835,-2.982,-2.9756,-2.9744,-2.9649,-2.9632,-2.9619,-2.9616,-2.9615,-2.9617,-2.9587,-2.9594,-2.9615,-2.9616,-2.9617,-2.9618,0,-3.0229,-3.0214,-3.0113,-3.0067,-3.0053,-2.9987,-2.9946,-2.989,-2.9873,-2.9792,-2.9773,-2.9744,-2.967,-2.9651,-2.9561,-2.9553,-2.944,-2.9447,-2.9457,-2.9456,-2.9388,-2.9394,-2.9177,-2.9147,-2.9333,-2.9332,-2.933,0,-3.0135,-3.0072,-3.0021,-2.998,-2.9952,-2.9886,-2.9845,-2.9837,-2.9793,-2.9732,-2.9682,-2.961,-2.9551,-2.9432,-2.9401,-2.9333,-2.9336,-2.9266,-2.9326,-2.9327,-2.9331,-2.9333,-2.9326,-2.9252,-2.925,-2.9249,-2.9248,0,-2.9969,-2.9965,-2.9906,-2.9844,-2.9795,-2.9745,-2.9697,-2.9663,-2.9649,-2.9599,-2.9524,-2.9479,-2.939,-2.9317,-2.9249,-2.9219,-2.9229,-2.923,-2.921,-2.9207,-2.9214,-2.9206,-2.9422,-2.9233,-2.9235,-2.9236,-2.9237,-2.9237,-2.9849,-2.9794,-2.975,-2.9683,-2.9648,-2.9604,-2.9548,-2.9526,-2.9464,-2.9392,-2.9392,-2.931,-2.9262,-2.9172,-2.9139,-2.9073,-2.9094,-2.9066,-2.9058,-2.905,-2.9043,-2.9229,-2.9061,-2.9062,-2.9062,-2.9062,-2.9063,0,-2.9681,-2.9654,-2.9593,-2.9528,-2.9475,-2.9495,-2.9444,-2.9398,-2.9327,-2.9282,-2.9226,-2.914,-2.907,-2.9036,-2.8967,-2.8921,-2.8924,-2.8903,-2.8903,-2.8896,-2.903,-2.9052,-2.8901,-2.8901,-2.8901,-2.8902,-2.8902,-2.8902,-2.9586,-2.9494,-2.9485,-2.9375,-2.9348,-2.927,-2.9239,-2.9198,-2.9162,-2.9067,-2.901,-2.899,-2.8949,-2.8877,-2.8813,-2.8805,-2.8777,-2.8753,-2.8746,-2.8871,-2.8887,-2.8902,-2.8923,-2.8748,-2.8747,-2.8617,-2.8616,-2.8615]}]]